Vagabond Aaf / Yakim, WA

1:55 AM PDT on March 26, 2017 (GMT -0700)
Vagabond Aaf / Yakim

Weather History for K1YT - December, 2013

Change the Weather History Date:

Tuesday, December 31, 2013

  Actual Average (KYKM) Record (KYKM)
Temperature  
Mean Temperature 34 °F -  
Max Temperature 45 °F 33 °F 55 °F (1954)
Min Temperature 24 °F 20 °F -7 °F (1978)
Degree Days  
Heating Degree Days 30    
Moisture  
Dew Point 29 °F    
Average Humidity 85    
Maximum Humidity 98    
Minimum Humidity 65    
Precipitation  
Precipitation 0.00 in - - ()
Sea Level Pressure  
Sea Level Pressure 30.21 in    
Wind  
Wind Speed 4 mph (SE)    
Max Wind Speed 10 mph    
Max Gust Speed -    
Visibility 9 miles    
Events      
Averages and records for this station are not official NWS values.
T = Trace of Precipitation, MM = Missing Value Source: NWS Daily Summary

Daily Weather History Graph

Daily Weather History Graph

Search for Another Location

Airport or City:

Trip Planner

Search our weather history database for the weather conditions in past years. The results will help you decide how hot, cold, wet, or windy it might be!

Date:

Astronomy

Dec. 31, 2013 Rise Set
Actual Time 7:46 AM PST 4:23 PM PST
Civil Twilight 7:11 AM PST 4:58 PM PST
Nautical Twilight 6:32 AM PST 5:37 PM PST
Astronomical Twilight 5:56 AM PST 6:14 PM PST
Moon 6:41 AM PST (12/31) 4:08 PM PST (12/31)
Length of Visible Light 9h 47m
Length of Day
8h 37m
Waning Crescent, 1% of the Moon is Illuminated
Dec 31
Waning Crescent
Jan 1
New
Jan 7
First Quarter
Jan 15
Full
Jan 23
Last Quarter

Hourly Weather History & Observations

Time (PST) Temp. Windchill Dew Point Humidity Pressure Visibility Wind Dir Wind Speed Gust Speed Precip Events Conditions
12:56 AM 24.3 °F 18.4 °F 23.0 °F 95% 30.16 in 5.0 mi ESE 4.6 mph - N/A   Scattered Clouds
1:56 AM 24.3 °F 19.9 °F 22.5 °F 93% 30.16 in 6.0 mi SE 3.5 mph - N/A   Clear
2:56 AM 24.6 °F - 22.5 °F 91% 30.16 in 7.0 mi Variable 2.3 mph - N/A   Partly Cloudy
3:56 AM 24.3 °F 19.9 °F 22.6 °F 94% 30.15 in 6.0 mi WSW 3.5 mph - N/A   Mostly Cloudy
4:56 AM 25.2 °F 20.9 °F 23.4 °F 93% 30.15 in 7.0 mi WSW 3.5 mph - N/A   Mostly Cloudy
5:56 AM 26.6 °F - 24.4 °F 92% 30.14 in 9.0 mi NNW 2.3 mph - N/A   Mostly Cloudy
6:56 AM 26.4 °F - 24.6 °F 93% 30.15 in 6.0 mi Variable 1.2 mph - N/A   Mostly Cloudy
7:56 AM 26.6 °F 20.0 °F 24.6 °F 92% 30.16 in 5.0 mi WSW 5.8 mph - N/A   Mostly Cloudy
8:56 AM 29.3 °F - 27.9 °F 94% 30.18 in 6.0 mi East 2.3 mph - N/A   Overcast
9:56 AM 32.9 °F - 30.7 °F 92% 30.19 in 7.0 mi Variable 1.2 mph - N/A   Mostly Cloudy
10:56 AM 34.5 °F 31.6 °F 31.5 °F 89% 30.20 in 6.0 mi NNW 3.5 mph - N/A   Mostly Cloudy
11:56 AM 38.5 °F - 33.3 °F 81% 30.18 in 10.0 mi SE 2.3 mph - N/A   Mostly Cloudy
12:56 PM 39.9 °F 37.8 °F 31.6 °F 72% 30.19 in 12.0 mi NNE 3.5 mph - N/A   Partly Cloudy
1:56 PM 43.9 °F - 33.6 °F 67% 30.19 in 12.0 mi NNE 1.2 mph - N/A   Clear
2:56 PM 45.5 °F 42.5 °F 34.2 °F 65% 30.20 in 12.0 mi SW 5.8 mph - N/A   Clear
3:56 PM 41.5 °F 39.6 °F 32.5 °F 70% 30.22 in 12.0 mi South 3.5 mph - N/A   Clear
4:56 PM 37.2 °F 32.6 °F 32.2 °F 82% 30.23 in 12.0 mi ESE 5.8 mph - N/A   Clear
5:56 PM 34.9 °F 32.0 °F 29.7 °F 81% 30.26 in 12.0 mi South 3.5 mph - N/A   Clear
6:56 PM 39.2 °F - 31.1 °F 73% 30.27 in 12.0 mi Variable 1.2 mph - N/A   Clear
7:56 PM 32.0 °F - 31.5 °F 98% 30.29 in 12.0 mi Calm Calm - N/A   Clear
8:56 PM 36.3 °F 32.5 °F 29.5 °F 76% 30.29 in 12.0 mi ESE 4.6 mph - N/A   Clear
9:56 PM 37.0 °F 31.0 °F 31.5 °F 80% 30.31 in 12.0 mi East 8.1 mph - N/A   Clear
10:56 PM 37.4 °F 30.3 °F 30.6 °F 76% 30.32 in 12.0 mi ESE 10.4 mph - N/A   Clear
11:56 PM 27.7 °F - 26.8 °F 96% 30.34 in 12.0 mi Variable 2.3 mph - N/A   Clear